Theta_e
332 331 331 330 331 331 332 332 332 332 332 332 332 331 331 331 331 331 331 331 331 330 331 331 331 331 329 328 328 327 327 327 328 328 328 328 327 327 327 327 326 325 324 322 321 322 322 322 322 323 324 323 323 323 322 322 317 309 304 304 304 304 304
331 330 330 330 331 331 331 331 332 332 332 331 331 331 330 330 330 330 331 330 330 330 330 330 330 331 329 328 328 327 327 327 327 328 328 328 328 327 327 327 325 323 322 321 321 322 321 321 322 322 322 322 322 322 322 320 313 306 305 304 303 304 303
331 330 330 331 330 330 330 331 331 331 330 330 329 329 329 329 329 329 329 329 329 329 329 329 330 329 328 328 328 328 327 327 327 327 328 328 328 327 327 326 324 322 320 319 320 321 320 320 321 321 322 322 322 321 321 318 311 306 305 304 303 303 303
331 330 331 331 330 329 328 329 329 329 328 327 327 327 327 326 326 326 327 327 328 328 329 329 328 328 328 328 328 328 328 327 327 327 327 327 328 327 327 327 325 323 322 320 320 321 320 319 320 321 321 321 321 320 320 318 310 306 305 303 303 303 302
330 329 330 330 329 327 325 326 327 326 326 326 325 326 325 325 324 324 324 325 326 327 328 328 327 327 328 328 328 328 328 327 327 327 327 327 327 328 327 327 326 324 323 321 321 322 321 321 321 320 319 320 319 318 320 318 311 307 305 303 303 302 301
328 328 329 329 328 326 324 324 324 324 324 324 324 324 324 324 324 323 323 323 324 325 326 327 326 327 328 328 328 328 328 327 327 327 327 327 326 327 328 327 326 324 322 321 321 321 322 322 321 319 318 319 317 316 320 318 311 308 307 303 302 301 299
327 328 328 327 327 326 325 324 325 324 323 323 322 323 323 324 324 323 322 323 323 324 325 326 326 326 327 327 328 328 327 326 326 326 326 326 326 326 328 327 326 324 323 321 320 321 322 321 321 320 317 316 315 314 317 315 310 308 309 305 302 302 300
327 327 327 326 326 325 325 325 325 324 323 323 323 323 323 324 323 323 323 323 323 324 325 326 325 326 326 326 327 327 327 326 326 326 326 326 326 326 327 327 326 325 322 320 320 320 321 321 321 321 319 316 314 312 310 311 310 309 310 307 304 305 302
327 327 327 325 325 325 324 324 324 324 324 324 324 323 324 324 323 322 323 323 323 324 325 325 326 326 326 326 327 327 326 326 326 326 326 326 326 327 327 327 327 325 322 320 319 319 320 321 320 320 319 318 317 313 309 311 311 309 311 310 307 307 305
327 327 326 325 324 324 324 324 324 324 324 323 323 323 323 323 323 323 323 322 323 323 323 325 327 327 327 327 327 326 326 326 326 326 326 326 326 326 326 326 327 326 323 320 319 319 319 320 319 319 318 315 315 314 312 315 314 310 311 311 308 306 306
327 326 325 323 323 324 324 323 323 323 323 322 322 322 323 323 323 323 322 322 322 322 322 324 327 328 327 327 327 327 327 326 326 325 325 325 325 325 326 326 327 327 325 322 319 318 318 319 318 318 317 313 310 311 312 315 317 312 310 311 308 306 306
327 326 323 322 323 324 323 322 323 323 322 322 321 322 323 323 323 322 322 322 322 322 323 324 327 328 327 327 328 327 327 326 325 325 324 324 325 325 325 326 327 326 326 324 321 318 318 318 318 317 316 313 310 309 310 313 315 313 310 309 308 307 306
325 324 323 322 322 322 321 321 322 322 322 322 321 322 323 323 323 322 322 323 321 322 324 325 327 328 328 328 328 328 327 326 323 321 322 322 322 322 323 324 325 326 326 324 322 321 319 318 318 317 315 313 310 309 309 310 312 311 309 309 308 307 307
324 323 322 322 321 321 321 321 322 322 322 322 321 322 323 323 322 322 322 322 321 321 322 324 326 327 327 327 327 327 327 322 317 317 319 318 316 316 317 318 320 323 325 325 323 322 320 316 315 316 314 312 310 309 309 309 309 309 309 308 308 308 308
323 323 322 320 320 321 321 322 322 322 321 322 322 322 322 322 322 322 321 322 322 321 321 321 323 324 324 323 322 322 321 316 313 314 316 315 314 314 315 315 315 317 321 324 323 322 319 314 313 314 313 312 311 310 310 309 308 308 308 308 308 307 308
323 322 319 319 319 320 321 321 321 321 321 322 322 322 322 321 321 321 320 321 322 321 320 319 319 320 320 319 316 315 314 313 312 314 314 314 314 315 314 314 315 315 316 319 321 323 320 314 312 313 312 311 311 311 310 309 308 308 308 308 308 308 307
322 320 319 319 320 320 321 320 320 321 322 322 322 321 320 320 321 320 320 320 320 320 319 319 318 317 318 318 317 315 314 313 313 313 313 313 314 314 314 314 314 315 315 316 318 320 320 315 312 312 311 311 311 311 312 310 308 307 308 308 308 308 307
321 319 319 321 321 321 321 320 320 321 322 322 321 319 318 319 319 320 319 319 319 318 318 318 317 316 316 316 317 316 315 314 314 313 313 312 312 313 314 314 314 314 315 315 316 317 319 319 316 314 313 312 312 312 312 311 308 307 308 309 309 308 307
320 320 321 321 321 321 320 320 321 322 322 321 319 318 317 317 316 317 318 317 316 316 316 316 316 315 315 315 314 314 314 314 314 314 313 313 313 312 313 315 315 314 315 315 316 316 318 319 319 317 315 314 314 313 312 310 308 307 307 309 309 308 308
321 321 321 321 321 320 320 321 322 321 321 319 318 318 316 314 313 314 315 315 315 314 313 313 313 312 313 313 313 313 312 314 316 315 314 314 314 313 314 314 314 314 315 315 315 315 315 316 316 316 315 315 314 314 312 310 308 307 307 309 310 309 309
321 321 321 320 320 321 321 321 321 320 319 318 318 318 315 313 312 311 312 313 313 313 312 312 311 311 311 311 312 312 312 313 315 316 315 314 314 314 314 314 314 314 314 314 314 314 314 314 314 314 314 314 313 312 312 310 308 308 309 310 311 310 309
322 321 320 320 320 320 320 320 320 318 317 316 317 317 315 313 312 311 311 311 312 312 312 312 311 311 311 311 311 311 311 312 313 314 315 315 315 315 314 314 314 314 314 314 314 314 313 313 314 314 314 314 312 311 310 309 309 310 311 311 311 310 310
321 320 320 320 320 319 319 319 319 318 316 316 316 315 315 314 313 312 312 312 312 312 311 311 311 311 311 312 311 311 312 312 312 313 315 315 315 315 315 314 314 313 313 313 314 314 314 314 314 314 314 314 313 312 311 311 312 312 313 312 311 311 310
320 320 320 320 318 316 315 317 317 318 317 316 315 315 314 314 314 313 314 314 313 312 311 311 311 311 312 312 312 311 311 312 313 313 314 315 315 315 315 315 314 313 313 313 313 314 315 315 315 314 314 314 314 314 313 313 314 314 314 313 313 312 311
319 319 319 318 317 316 315 316 317 318 318 317 317 316 315 314 314 314 315 314 314 313 312 311 311 311 312 312 312 312 312 312 313 313 313 314 315 315 315 315 314 314 313 313 313 313 314 315 316 316 316 315 315 315 314 314 314 314 314 314 313 313 313
316 317 317 317 318 318 317 317 318 319 319 319 319 318 317 317 316 316 316 315 314 313 313 312 311 311 311 311 312 312 312 312 313 313 314 314 314 314 314 314 314 314 314 314 313 313 314 315 316 316 316 316 316 316 315 315 315 314 314 314 314 314 314
310 310 311 312 314 314 314 314 315 316 318 319 319 319 319 319 319 319 318 318 317 317 317 316 315 314 314 313 313 313 313 313 312 313 313 313 314 314 314 314 314 313 313 313 313 313 314 315 316 316 317 317 317 316 316 316 316 316 316 316 316 316 316
305 304 305 305 306 306 306 307 307 309 311 313 314 314 315 316 318 319 319 319 320 319 319 319 319 319 318 318 317 316 316 315 315 314 313 313 313 313 313 314 314 313 313 313 313 314 314 314 315 316 316 317 317 317 317 317 317 316 316 316 316 316 316
302 302 302 303 302 301 301 301 301 302 304 305 307 308 309 310 312 313 315 316 318 317 316 317 318 319 320 320 320 320 319 319 318 317 316 315 315 314 313 313 313 314 314 314 315 315 315 314 314 315 316 316 317 317 317 316 316 316 316 316 315 314 314
301 301 301 301 301 300 300 300 300 300 301 301 302 303 303 304 305 306 308 310 311 311 311 312 313 315 316 317 318 318 319 320 320 320 319 319 318 317 316 316 315 315 315 315 315 315 315 315 315 316 316 316 316 316 316 316 315 315 314 314 313 313 313
300 300 300 300 300 300 300 300 300 300 300 300 300 300 300 301 301 302 303 303 304 304 305 305 307 308 310 311 312 313 314 315 317 318 319 320 320 319 319 319 318 318 317 317 316 316 316 316 316 316 316 316 316 316 315 315 314 313 313 313 313 313 312
299 299 299 300 300 300 299 299 299 299 299 299 299 299 299 299 300 300 300 300 301 301 301 301 302 303 304 305 306 307 307 308 310 311 313 315 317 318 319 319 319 319 319 318 318 317 316 316 317 316 316 316 315 315 315 315 314 313 313 314 313 312 311
298 299 299 299 300 300 299 299 299 299 300 300 299 299 299 299 299 299 299 299 299 299 300 300 300 300 301 301 302 302 303 303 304 306 307 308 310 312 314 315 317 318 319 319 319 318 317 317 317 316 316 316 315 315 316 316 315 314 313 312 312 311 310
297 298 298 298 299 299 298 298 298 299 299 300 300 300 300 300 299 299 299 299 299 299 299 299 299 299 299 300 300 300 301 301 301 303 304 305 306 307 308 309 311 312 314 315 317 318 317 317 316 316 316 316 316 315 316 315 314 313 311 311 310 309 308
297 297 297 297 297 297 297 297 298 298 298 298 298 299 299 299 299 299 299 298 298 298 298 298 298 298 298 299 299 299 299 299 300 301 302 302 304 304 305 306 307 308 309 310 312 315 317 316 316 315 315 315 315 314 314 313 313 312 311 310 309 307 306
296 296 296 296 296 296 296 296 297 297 297 297 297 297 297 297 298 298 298 298 298 298 298 298 298 298 298 298 298 298 298 298 299 299 300 301 302 303 303 304 305 306 307 307 308 311 314 315 315 314 314 314 314 314 313 313 313 312 311 309 307 306 305
295 295 295 295 295 295 295 295 295 295 296 296 296 296 296 296 296 297 297 297 297 297 297 298 298 298 298 298 298 298 298 298 298 298 299 300 301 302 303 303 304 304 305 306 307 308 311 313 314 314 314 313 314 314 313 313 313 312 309 307 306 305 304
Wind_Speed
17 17 15 13 12 10 9 9 10 10 8 8 8 8 8 8 8 9 10 9 9 9 10 11 11 10 12 15 16 16 17 17 18 19 19 18 17 12 9 5 1 11 19 12 11 13 6 3 5 6 7 9 10 10 11 11 9 9 9 9 10 10 10
17 17 15 14 13 11 11 11 11 11 10 9 9 9 8 8 8 9 10 9 8 9 9 10 10 9 12 15 16 15 15 15 14 15 16 17 18 14 10 7 6 14 15 9 14 16 10 6 4 3 7 10 10 10 10 10 9 8 8 8 9 9 9
17 16 15 15 14 13 12 13 13 12 12 11 10 10 9 9 9 9 9 8 8 8 9 10 10 10 12 14 14 14 14 13 12 12 12 14 16 14 10 8 9 14 13 8 12 15 11 7 4 5 8 8 8 8 9 9 8 7 8 8 8 8 9
18 17 17 17 16 15 14 14 14 14 13 12 12 11 10 10 10 9 8 7 8 9 9 10 10 11 12 12 12 12 13 13 12 11 10 11 14 13 10 8 10 14 15 12 14 16 13 10 7 6 7 7 8 7 8 8 7 7 7 7 8 8 8
17 18 19 20 18 17 17 16 16 15 14 13 11 10 10 10 9 7 6 6 7 8 9 9 10 10 11 11 11 11 11 11 11 12 12 11 13 14 12 9 10 15 16 14 17 18 16 18 17 9 7 9 7 5 8 8 6 7 7 7 8 8 9
18 20 22 21 19 19 18 18 17 16 14 13 11 10 10 9 7 5 4 4 4 7 9 9 10 10 10 10 11 11 10 10 10 11 12 12 13 15 15 12 11 16 15 12 16 17 16 22 23 14 9 8 5 5 7 6 5 5 6 7 8 9 9
20 22 22 20 19 19 19 18 17 16 15 13 12 11 9 8 6 4 4 4 3 7 10 9 8 9 9 9 10 10 9 8 9 10 11 12 12 14 16 13 12 16 15 11 15 17 17 22 24 19 12 6 6 7 6 4 5 4 4 7 9 10 10
22 22 20 18 19 19 18 17 16 16 15 13 12 11 10 9 6 4 5 4 4 6 9 8 7 7 7 8 9 9 9 8 8 9 9 10 12 13 16 15 12 14 14 12 15 17 18 20 22 24 20 10 5 4 3 3 6 5 5 7 9 10 11
23 22 20 19 19 19 18 17 16 15 14 13 13 12 11 9 7 5 4 4 4 5 7 7 7 7 7 7 8 9 9 9 8 8 8 9 11 12 14 15 13 12 12 12 15 16 17 19 21 24 25 20 11 3 1 2 5 6 6 8 10 10 12
25 23 21 21 20 18 17 16 16 16 14 12 11 10 10 9 7 6 4 3 4 4 4 5 5 6 7 8 9 9 9 9 8 8 8 9 11 11 12 14 13 12 10 11 15 16 17 19 21 22 23 23 19 10 2 2 5 8 9 10 10 10 13
26 23 22 20 19 19 18 17 16 15 13 10 9 9 9 9 7 5 4 4 4 3 3 4 4 5 7 8 9 9 8 8 8 9 9 10 11 12 12 13 13 13 11 12 15 16 17 18 20 21 21 21 20 16 10 5 5 10 12 12 11 10 13
24 23 21 19 19 20 19 17 15 13 11 9 8 8 8 8 6 4 4 5 4 2 2 3 4 5 6 7 8 8 7 7 8 9 9 10 11 12 12 13 14 14 13 13 15 17 17 17 19 20 20 20 18 17 17 11 4 9 14 13 11 12 13
23 21 19 18 18 19 17 15 13 11 9 8 7 7 7 6 5 4 5 6 4 2 2 3 4 4 4 5 6 7 7 7 7 9 9 10 10 11 12 14 15 16 16 16 16 17 18 18 20 22 21 21 19 14 14 14 7 8 14 13 11 12 13
22 20 17 16 16 16 13 12 11 9 8 7 7 7 7 7 6 5 6 7 5 2 2 4 3 3 4 4 5 6 6 6 7 9 11 11 10 10 10 12 14 17 18 18 18 19 18 18 22 24 22 21 20 15 12 12 8 8 13 14 12 12 13
20 17 16 14 13 12 11 10 9 8 7 7 7 7 7 7 6 5 6 7 6 4 2 3 4 3 3 4 5 6 6 7 8 10 12 12 10 9 8 9 11 15 19 20 20 20 19 19 22 24 23 21 20 17 14 11 7 8 13 16 14 14 14
19 16 15 13 11 10 9 8 7 7 7 7 7 7 7 6 6 5 6 7 7 5 3 3 3 3 3 4 5 5 6 8 9 10 12 11 9 8 7 6 6 9 15 19 21 22 20 21 23 24 23 22 21 20 17 14 11 9 12 16 16 15 15
19 17 15 13 11 10 9 7 7 7 8 7 7 6 6 6 7 6 6 7 8 6 4 3 2 3 4 4 5 4 5 8 9 10 10 9 8 7 7 7 6 6 9 13 18 22 22 22 23 23 23 23 22 22 20 18 15 12 11 14 17 17 16
18 17 15 13 12 10 8 7 7 8 8 6 5 5 6 6 6 6 7 7 7 7 6 4 3 3 4 5 5 5 5 7 9 9 9 8 8 8 8 9 9 9 9 10 13 17 19 21 22 22 23 23 23 23 22 20 18 15 12 12 15 18 17
18 16 14 14 13 11 8 7 8 8 7 5 5 5 5 5 5 6 6 6 7 7 6 6 5 4 5 5 6 6 7 8 9 10 9 8 8 9 10 10 11 11 11 11 12 13 15 18 19 20 21 21 22 23 22 21 20 18 15 13 13 17 17
14 14 13 13 13 11 9 8 8 8 6 5 6 6 6 5 4 5 5 6 6 6 6 6 5 5 5 6 7 7 8 9 10 10 9 8 8 9 10 11 11 11 11 11 12 13 14 16 17 17 17 16 17 19 20 20 20 20 18 15 14 16 17
8 9 10 11 11 10 10 9 8 7 5 5 6 6 6 5 4 4 4 5 6 6 6 6 5 5 5 6 7 8 8 9 10 10 9 9 9 9 9 9 9 9 10 10 11 12 14 15 16 16 15 14 13 14 15 18 20 20 18 16 16 16 17
8 7 8 9 10 10 9 9 8 6 5 5 6 7 7 6 6 6 5 5 6 6 6 6 5 5 5 5 6 6 6 7 9 11 10 9 9 9 9 9 8 8 9 9 10 11 12 14 14 14 14 14 13 12 14 17 19 19 17 17 17 16 16
11 10 9 9 8 8 8 7 7 6 5 5 6 8 9 8 7 7 7 7 7 6 6 6 6 5 5 5 4 5 5 5 7 10 10 10 10 10 10 10 10 10 10 9 10 10 11 11 12 13 13 13 13 14 15 17 18 18 17 18 18 17 17
10 8 7 6 6 6 6 6 5 5 5 6 7 9 10 10 9 9 8 8 7 7 7 7 7 7 6 6 6 6 7 7 7 9 11 12 11 11 11 12 13 12 12 12 12 12 12 12 12 12 12 12 13 14 16 17 18 18 18 18 18 17 18
10 8 6 6 5 5 5 4 4 4 4 5 6 8 9 10 9 8 8 8 7 7 8 9 9 9 9 8 8 9 9 10 10 10 11 13 14 13 13 13 14 15 15 15 14 14 14 13 13 13 12 12 13 14 15 16 17 17 18 17 17 18 19
15 13 11 10 9 8 7 7 7 5 5 4 4 5 5 5 4 3 4 4 4 4 4 6 8 9 10 10 11 11 11 12 12 12 13 14 15 16 16 16 17 18 18 18 17 17 16 16 16 15 15 14 15 15 16 17 18 18 17 17 18 19 20
21 18 16 15 14 13 12 11 10 9 7 6 5 6 5 4 3 3 2 3 3 2 2 1 3 5 6 8 9 11 12 13 14 15 16 16 17 18 19 19 20 21 22 21 21 21 20 20 19 19 18 18 18 19 19 19 19 20 20 19 19 20 20
25 23 22 21 21 20 19 17 15 12 10 9 8 8 8 6 5 4 4 5 5 4 4 2 1 2 3 5 6 8 10 11 13 14 16 18 19 20 21 22 23 23 24 24 24 24 24 24 23 22 22 22 21 22 21 21 21 21 21 21 20 20 20
26 25 23 23 24 24 22 21 19 16 14 13 12 11 11 10 9 8 7 6 5 5 5 4 3 3 4 5 6 7 9 10 11 12 14 15 17 19 21 22 23 24 25 25 25 25 25 25 25 25 25 25 25 25 24 23 22 22 22 21 19 17 18
23 22 21 21 22 22 21 20 19 17 16 15 14 14 13 13 12 11 10 9 8 7 7 6 5 4 5 5 6 8 9 10 11 12 14 14 15 16 17 19 20 22 24 26 27 26 25 24 24 25 26 26 27 26 24 23 22 20 18 16 14 14 17
19 18 18 18 18 18 18 18 17 17 17 16 15 15 13 12 12 12 12 11 10 9 9 8 6 5 5 6 6 7 9 10 11 13 15 16 16 16 17 17 18 19 21 24 25 26 26 26 25 25 25 26 27 26 24 23 20 17 15 15 19 25 28
19 18 17 16 14 14 14 13 13 13 14 15 15 15 14 13 12 12 11 11 9 9 8 8 8 7 6 6 6 7 8 9 10 11 13 15 17 18 18 19 19 19 21 21 21 22 24 26 26 24 24 25 25 25 24 24 22 22 22 24 27 28 27
18 17 16 14 12 11 11 11 11 11 10 10 10 11 13 13 13 12 12 11 10 9 9 8 8 8 8 8 8 8 9 10 11 11 13 14 16 17 18 19 20 20 21 21 21 20 22 24 25 23 23 25 26 26 27 29 29 27 25 24 22 20 19
17 16 15 13 10 9 8 8 9 9 9 10 10 10 11 12 11 11 11 10 9 9 9 9 9 8 9 9 10 10 10 11 12 14 15 16 17 18 18 19 20 20 21 21 21 21 21 23 24 23 23 25 26 25 28 30 29 25 21 19 18 18 19
16 15 14 11 10 9 8 6 6 6 7 7 8 7 8 9 9 9 9 9 9 9 9 9 9 9 9 10 10 11 11 11 12 14 16 17 19 19 20 20 20 20 21 20 21 22 21 22 22 22 23 24 23 22 23 25 25 23 21 19 19 20 22
15 15 14 12 11 9 8 6 6 6 6 6 7 7 8 8 8 9 10 10 10 10 10 10 10 11 11 11 11 12 12 13 13 14 16 18 19 20 21 21 22 22 22 22 21 21 21 21 22 22 22 23 22 22 23 25 24 23 22 22 22 24 25
16 15 14 13 12 11 9 8 7 7 6 6 7 7 8 9 10 11 12 13 13 13 14 14 13 13 13 13 13 13 14 14 15 16 17 18 19 20 21 22 23 23 24 25 24 23 22 22 22 22 21 21 22 23 26 27 25 24 23 24 26 28 29
Wind_Direction
185 181 182 186 193 199 194 186 182 174 168 167 170 168 166 168 171 171 172 175 182 189 196 201 199 197 193 192 195 199 200 197 194 187 180 179 180 181 182 183 146 163 164 160 155 145 123 97 102 98 112 121 126 128 124 118 107 94 89 90 92 91 92
185 181 180 186 188 186 179 172 169 164 161 162 164 162 156 155 158 161 164 167 174 182 191 197 199 199 195 193 194 199 202 202 203 201 192 189 189 187 184 175 145 155 161 156 151 141 124 134 142 126 130 124 123 127 128 122 107 98 97 95 100 101 99
181 179 179 180 178 174 168 162 159 159 158 158 154 150 147 145 148 153 158 164 167 172 180 186 191 194 191 192 195 198 204 206 208 210 206 203 199 194 191 183 159 155 154 144 147 142 125 121 127 148 150 137 125 127 134 129 112 103 102 104 111 110 108
178 178 176 176 174 169 163 156 155 156 153 151 147 145 145 144 146 148 153 163 171 173 178 182 185 187 186 189 195 200 204 208 213 216 218 216 207 201 201 203 195 183 176 171 165 156 141 130 129 138 143 134 129 138 145 137 122 110 104 111 120 117 117
181 180 177 176 174 167 161 156 155 155 153 151 149 149 150 149 147 145 151 165 177 180 179 178 177 178 183 187 191 196 199 206 213 216 218 218 214 210 207 211 220 206 193 186 176 169 162 152 144 136 138 136 129 142 152 145 133 120 110 114 124 123 122
184 183 179 176 173 169 163 159 159 159 159 159 158 158 157 155 153 153 161 167 178 183 176 171 170 173 178 184 189 191 193 200 206 211 215 215 213 213 210 209 215 208 201 193 183 178 169 155 144 136 140 141 131 144 156 156 150 137 124 124 126 125 126
185 183 179 177 176 175 171 167 167 167 166 165 164 165 163 163 165 168 176 174 177 182 176 168 168 173 178 182 188 190 189 196 202 205 210 212 209 209 208 209 210 207 207 201 189 183 172 160 151 145 139 114 108 135 153 178 180 167 143 138 135 129 128
186 183 181 182 182 181 179 177 176 174 171 168 166 169 170 172 175 177 182 180 175 178 179 179 179 183 187 186 187 190 190 192 196 196 198 201 201 202 206 210 211 210 209 202 194 190 182 174 167 159 152 132 104 124 151 192 204 199 175 159 151 141 137
188 184 184 187 187 186 184 181 177 174 170 165 165 169 171 172 170 173 181 176 173 176 180 186 190 195 200 195 191 191 192 192 193 193 192 191 192 195 204 211 214 210 206 201 198 195 188 184 180 173 166 157 147 145 185 193 216 219 198 181 172 161 154
190 188 187 188 189 187 184 180 173 169 166 163 165 168 169 167 163 168 182 186 180 178 182 187 186 190 195 194 193 194 195 196 194 191 191 190 190 196 204 208 212 210 203 202 201 196 190 188 186 183 181 173 162 152 152 189 215 218 203 190 183 172 166
191 189 188 187 187 185 181 177 172 167 165 163 166 169 170 169 164 169 192 196 180 178 200 200 178 173 180 182 186 190 193 195 192 188 188 191 192 197 200 199 204 208 205 203 203 198 194 194 193 191 192 190 175 163 163 166 209 213 202 192 188 180 175
190 188 186 185 185 184 181 178 173 167 163 162 165 169 173 175 172 177 193 185 170 172 211 203 182 168 167 173 178 181 186 190 190 187 184 185 189 191 191 191 196 202 203 204 205 203 203 204 204 199 198 197 188 177 172 164 175 207 202 196 188 181 180
188 187 186 186 186 186 185 181 176 169 165 164 165 166 174 183 184 191 188 175 163 145 155 171 184 185 173 174 177 180 187 189 191 192 185 180 184 188 190 192 196 199 200 203 204 205 209 213 210 206 203 199 194 191 182 174 169 189 198 198 185 180 183
188 189 189 190 190 189 188 184 177 171 167 167 169 169 177 186 192 199 189 174 166 144 123 140 156 174 176 175 177 181 188 187 186 188 182 175 177 183 191 196 201 203 203 204 203 202 207 212 209 206 205 203 201 203 199 189 174 168 189 197 190 184 187
190 193 192 191 191 190 188 185 177 172 173 175 175 175 180 187 196 203 191 178 172 159 131 132 135 143 158 161 165 171 176 177 177 176 173 171 171 173 178 187 197 202 205 208 206 202 203 206 206 206 207 210 212 214 215 210 193 171 186 196 195 193 195
190 195 194 189 190 192 190 186 180 177 181 183 180 181 188 193 194 191 183 180 180 176 163 151 144 149 159 164 163 160 165 174 174 170 169 169 170 173 173 177 189 197 200 207 209 207 205 204 205 208 211 217 223 224 225 221 212 198 194 196 198 201 203
190 194 193 191 194 197 194 190 187 185 185 186 188 188 190 193 191 186 182 181 185 189 184 179 180 177 179 187 187 179 176 182 183 179 176 177 180 184 189 192 202 204 198 203 208 209 208 207 208 212 217 223 228 231 232 227 220 216 209 203 204 208 210
191 193 192 197 204 203 200 197 193 189 189 193 199 196 190 192 195 194 192 191 196 202 202 201 204 194 188 195 202 208 211 205 201 196 194 196 198 203 207 204 203 203 201 202 206 208 209 211 214 218 224 230 233 235 234 229 224 222 225 220 212 211 214
189 193 195 202 208 205 200 195 191 189 194 204 203 197 195 200 204 199 195 196 202 208 211 208 207 202 200 207 211 212 216 217 213 207 206 212 218 219 217 211 203 198 196 195 195 197 204 211 217 224 230 236 239 239 235 228 223 222 229 235 224 214 214
179 187 196 200 200 196 186 182 186 189 199 212 207 200 200 201 205 202 200 202 207 212 212 208 211 216 217 220 219 215 215 217 214 212 215 219 218 218 217 215 212 207 204 202 199 197 200 207 215 222 228 234 238 238 232 225 221 221 226 233 229 220 216
177 182 191 191 184 175 169 172 183 191 204 215 214 210 206 203 208 212 215 217 218 221 219 219 227 236 235 232 228 225 225 224 220 220 222 217 209 208 214 219 220 220 220 221 221 220 218 217 217 219 222 226 230 230 223 217 217 219 224 228 229 227 222
197 182 173 168 160 155 158 170 184 194 209 216 218 218 215 218 225 231 241 245 242 241 239 237 238 246 259 260 247 238 237 233 228 228 228 222 214 213 215 220 226 229 230 232 235 239 238 235 231 228 225 222 221 219 215 213 216 220 223 224 225 226 224
174 161 152 150 150 151 158 175 187 197 213 221 223 226 226 232 238 242 255 264 264 262 258 250 242 244 264 276 267 259 264 264 246 238 239 239 236 237 237 237 239 239 242 245 244 243 241 240 240 239 237 232 226 222 217 217 222 226 225 225 225 223 221
153 153 152 154 158 162 171 185 192 205 224 232 233 234 237 241 245 250 260 265 267 265 258 253 249 250 260 269 270 271 278 283 273 257 252 250 250 252 252 252 251 252 256 259 256 250 244 240 240 240 242 243 240 237 233 230 230 228 227 228 231 229 227
133 142 145 142 142 142 150 161 166 187 210 223 230 232 235 241 250 259 262 260 260 262 260 258 259 261 265 266 265 267 269 272 273 267 260 256 255 256 255 254 254 257 263 266 265 260 252 246 244 243 242 243 244 245 246 244 242 237 234 234 236 236 237
108 113 117 119 121 120 118 113 111 120 136 151 173 189 202 217 230 248 252 251 262 275 274 270 268 268 270 270 268 269 269 268 269 267 265 262 261 260 259 257 257 259 262 265 265 263 257 252 249 246 245 244 243 243 243 245 247 247 247 247 246 248 249
90 91 95 98 98 96 93 89 87 92 103 115 123 121 124 133 128 121 115 108 101 87 62 315 277 270 271 272 272 273 273 273 271 269 268 267 266 265 264 264 264 266 267 266 266 264 260 256 252 248 247 246 245 244 243 242 244 246 249 251 252 255 260
81 79 81 84 82 78 77 75 72 74 80 86 88 87 87 92 98 97 87 90 99 92 70 37 340 301 285 281 277 274 274 275 276 275 274 273 272 271 270 270 271 272 272 272 272 271 267 262 258 254 251 249 248 247 245 244 244 244 245 248 251 256 262
72 69 71 74 71 65 64 64 61 61 65 70 72 71 69 69 71 75 76 78 84 77 58 33 3 330 308 298 289 282 279 279 279 278 278 279 280 280 279 279 279 278 278 277 275 274 271 266 261 257 254 253 252 251 249 246 245 245 247 250 252 257 262
67 64 63 65 62 57 55 54 51 50 51 54 57 57 56 57 59 62 67 69 67 66 58 39 16 351 330 318 306 298 294 291 287 283 279 278 280 282 282 284 285 285 284 282 280 278 274 269 263 258 255 254 253 251 249 248 248 249 250 254 264 278 282
64 62 59 56 52 47 47 47 44 43 44 43 44 46 46 50 52 52 56 59 57 59 59 49 32 11 355 341 325 315 308 302 297 291 285 280 278 279 278 278 281 284 284 283 284 284 280 274 267 261 257 255 254 252 250 250 250 249 251 265 282 287 285
60 58 54 48 41 31 30 32 28 29 36 36 35 35 34 35 37 36 39 41 40 42 46 43 34 21 7 355 341 329 322 314 308 300 292 286 282 280 277 275 274 276 277 278 281 286 286 279 270 263 258 253 249 250 252 253 255 259 263 271 278 277 272
64 61 56 50 41 24 14 8 359 355 360 2 3 9 13 17 20 19 18 17 14 14 15 16 18 13 1 353 345 337 331 326 320 312 304 299 294 289 284 281 277 276 277 277 278 283 287 283 276 268 259 252 248 254 261 262 262 265 267 269 269 262 252
69 68 64 59 56 45 29 15 3 356 349 337 331 328 328 335 345 349 352 354 354 354 353 352 352 350 344 339 333 329 328 327 323 316 310 306 304 300 296 291 286 283 284 283 282 283 286 287 282 271 262 261 263 268 270 265 261 261 261 257 252 241 228
65 65 63 61 64 62 54 40 25 17 8 359 358 349 332 325 323 319 321 328 333 335 337 337 336 335 332 329 324 320 320 319 318 315 310 305 302 300 299 296 291 287 285 284 282 280 280 283 282 272 265 268 270 269 266 260 257 256 253 245 235 223 214
63 62 61 60 62 62 57 49 37 27 17 8 9 6 357 348 337 325 319 319 321 324 323 322 322 323 322 321 321 319 316 314 312 310 308 306 303 301 299 296 292 288 284 280 277 274 273 276 277 273 268 264 260 256 253 251 251 249 243 233 223 215 210
65 65 63 62 61 60 56 50 43 36 28 20 14 6 359 351 342 337 331 326 324 323 321 318 316 316 315 314 315 316 316 315 313 308 304 304 304 303 301 297 293 290 285 280 275 270 267 267 270 271 267 259 250 244 241 243 244 241 232 222 215 212 208